When you browse on this site, cookies collect data to enhance your experience and personalize the content and advertising you see.
Visit our Privacy Policy to learn more. By continuing to use the site, you agree to this use of cookies and data.

Hourly Weather Tuktoyaktuk

Today, 14 August, Friday

Time Temperature Precipitation Wind Pressure Humidity
00:00 +5°C° 0 mm 3 mps 763 mmHg 93%
01:00 +5°C° 0 mm 3 mps 763 mmHg 93%
02:00 +5°C° 0 mm 3 mps 763 mmHg 92%
03:00 +5°C° 0 mm 3 mps 763 mmHg 91%
04:00 +7°C° 0 mm 3 mps 763 mmHg 89%
05:00 +7°C° 0 mm 3 mps 763 mmHg 87%
06:00 +8°C° 0 mm 3 mps 763 mmHg 85%
07:00 +8°C° 0 mm 3 mps 763 mmHg 82%
08:00 +9°C° 0 mm 2 mps 763 mmHg 79%
09:00 +9°C° 0 mm 2 mps 763 mmHg 77%
10:00 +9°C° 0 mm 2 mps 763 mmHg 77%
11:00 +9°C° 0 mm 2 mps 763 mmHg 77%
12:00 +9°C° 0 mm 2 mps 763 mmHg 78%
13:00 +9°C° 0 mm 2 mps 763 mmHg 77%
14:00 +9°C° 0 mm 2 mps 763 mmHg 75%
15:00 +9°C° 0 mm 2 mps 763 mmHg 74%
16:00 +9°C° 0 mm 2 mps 763 mmHg 74%
17:00 +9°C° 0 mm 2 mps 763 mmHg 74%
18:00 +9°C° 0 mm 2 mps 763 mmHg 75%
19:00 +8°C° 0 mm 2 mps 763 mmHg 78%
20:00 +7°C° 0 mm 2 mps 762 mmHg 81%
21:00 +7°C° 0 mm 2 mps 762 mmHg 84%
22:00 +8°C° 0.1 mm 1 mps 762 mmHg 83%
23:00 +8°C° 0.1 mm 1 mps 762 mmHg 83%

Tomorrow, 15 August, Saturday

Time Temperature Precipitation Wind Pressure Humidity
00:00 +8°C° 0.1 mm 1 mps 762 mmHg 82%
01:00 +7°C° 0.3 mm 2 mps 762 mmHg 85%
02:00 +7°C° 0.3 mm 2 mps 762 mmHg 88%
03:00 +7°C° 0.3 mm 2 mps 762 mmHg 91%
04:00 +7°C° 0.4 mm 2 mps 762 mmHg 93%
05:00 +7°C° 0.4 mm 3 mps 762 mmHg 94%
06:00 +7°C° 0.4 mm 3 mps 761 mmHg 96%
07:00 +8°C° 0.2 mm 3 mps 761 mmHg 95%
08:00 +8°C° 0.2 mm 3 mps 761 mmHg 95%
09:00 +8°C° 0.2 mm 3 mps 762 mmHg 95%
10:00 +9°C° 0.1 mm 3 mps 761 mmHg 93%
11:00 +9°C° 0.1 mm 3 mps 761 mmHg 92%
12:00 +9°C° 0.1 mm 3 mps 761 mmHg 90%
13:00 +9°C° 0.1 mm 3 mps 761 mmHg 90%
14:00 +7°C° 0.1 mm 4 mps 761 mmHg 90%
15:00 +6°C° 0.1 mm 4 mps 761 mmHg 90%
16:00 +6°C° 0 mm 4 mps 761 mmHg 90%
17:00 +6°C° 0 mm 4 mps 761 mmHg 90%
18:00 +6°C° 0 mm 4 mps 761 mmHg 90%
19:00 +6°C° 0 mm 5 mps 762 mmHg 91%
20:00 +5°C° 0 mm 5 mps 762 mmHg 91%
21:00 +5°C° 0 mm 5 mps 762 mmHg 92%
22:00 +5°C° 0 mm 5 mps 762 mmHg 91%
23:00 +5°C° 0 mm 5 mps 762 mmHg 90%

Day after tomorrow, 16 August, Sunday

Time Temperature Precipitation Wind Pressure Humidity
00:00 +5°C° 0 mm 5 mps 763 mmHg 90%
01:00 +5°C° 0 mm 5 mps 763 mmHg 90%
02:00 +5°C° 0 mm 5 mps 763 mmHg 90%
03:00 +3°C° 0 mm 5 mps 763 mmHg 90%
04:00 +5°C° 0 mm 4 mps 763 mmHg 90%
05:00 +5°C° 0 mm 4 mps 763 mmHg 90%
06:00 +5°C° 0 mm 4 mps 763 mmHg 90%
07:00 +7°C° 0 mm 3 mps 764 mmHg 88%
08:00 +7°C° 0 mm 3 mps 764 mmHg 86%
09:00 +8°C° 0 mm 2 mps 764 mmHg 84%
10:00 +8°C° 0 mm 2 mps 764 mmHg 82%
11:00 +9°C° 0 mm 1 mps 764 mmHg 79%
12:00 +10°C° 0 mm 1 mps 764 mmHg 76%
13:00 +10°C° 0 mm 1 mps 764 mmHg 74%
14:00 +11°C° 0 mm 1 mps 764 mmHg 72%
15:00 +11°C° 0 mm 1 mps 764 mmHg 70%
16:00 +10°C° 0 mm 2 mps 763 mmHg 70%
17:00 +10°C° 0 mm 2 mps 763 mmHg 70%
18:00 +10°C° 0 mm 3 mps 763 mmHg 69%
19:00 +9°C° 0 mm 3 mps 763 mmHg 73%
20:00 +7°C° 0 mm 4 mps 763 mmHg 77%
21:00 +6°C° 0 mm 4 mps 763 mmHg 80%
22:00 +6°C° 0 mm 4 mps 763 mmHg 83%
23:00 +6°C° 0 mm 4 mps 763 mmHg 85%

17 August, Monday

Time Temperature Precipitation Wind Pressure Humidity
00:00 +5°C° 0 mm 5 mps 763 mmHg 87%
01:00 +5°C° 0 mm 4 mps 763 mmHg 88%
02:00 +5°C° 0 mm 4 mps 763 mmHg 88%
03:00 +5°C° 0 mm 4 mps 762 mmHg 89%
04:00 +6°C° 0 mm 4 mps 762 mmHg 84%
05:00 +7°C° 0 mm 5 mps 762 mmHg 79%
06:00 +8°C° 0 mm 5 mps 762 mmHg 75%
07:00 +9°C° 0 mm 5 mps 762 mmHg 71%
08:00 +10°C° 0 mm 5 mps 762 mmHg 67%
09:00 +10°C° 0 mm 5 mps 762 mmHg 63%
10:00 +13°C° 0 mm 5 mps 762 mmHg 59%
11:00 +14°C° 0 mm 5 mps 762 mmHg 55%
12:00 +15°C° 0 mm 5 mps 761 mmHg 52%
13:00 +16°C° 0 mm 5 mps 761 mmHg 49%
14:00 +16°C° 0 mm 5 mps 761 mmHg 47%
15:00 +18°C° 0 mm 4 mps 761 mmHg 45%
16:00 +18°C° 0 mm 4 mps 761 mmHg 47%
17:00 +17°C° 0 mm 4 mps 761 mmHg 48%
18:00 +17°C° 0 mm 4 mps 760 mmHg 50%
19:00 +15°C° 0 mm 5 mps 761 mmHg 55%
20:00 +13°C° 0 mm 5 mps 761 mmHg 60%
21:00 +11°C° 0 mm 6 mps 761 mmHg 65%
22:00 +10°C° 0 mm 6 mps 761 mmHg 66%
23:00 +9°C° 0 mm 5 mps 761 mmHg 68%

18 August, Tuesday

Time Temperature Precipitation Wind Pressure Humidity
00:00 +8°C° 0 mm 5 mps 761 mmHg 69%
01:00 +8°C° 0 mm 6 mps 761 mmHg 70%
02:00 +7°C° 0 mm 6 mps 761 mmHg 70%
03:00 +7°C° 0 mm 6 mps 761 mmHg 71%
04:00 +8°C° 0 mm 6 mps 761 mmHg 67%
05:00 +8°C° 0 mm 6 mps 761 mmHg 64%
06:00 +9°C° 0 mm 7 mps 761 mmHg 60%
07:00 +10°C° 0 mm 7 mps 761 mmHg 56%
08:00 +11°C° 0 mm 7 mps 761 mmHg 53%
09:00 +14°C° 0 mm 7 mps 760 mmHg 49%
10:00 +14°C° 0 mm 7 mps 760 mmHg 47%
11:00 +15°C° 0 mm 7 mps 760 mmHg 46%
12:00 +16°C° 0 mm 7 mps 760 mmHg 44%
13:00 +16°C° 0 mm 6 mps 760 mmHg 43%
14:00 +16°C° 0 mm 6 mps 760 mmHg 42%
15:00 +17°C° 0 mm 6 mps 760 mmHg 41%
16:00 +16°C° 0 mm 6 mps 760 mmHg 43%
17:00 +16°C° 0 mm 6 mps 760 mmHg 45%
18:00 +15°C° 0 mm 6 mps 759 mmHg 46%
19:00 +14°C° 0 mm 7 mps 760 mmHg 52%
20:00 +11°C° 0 mm 7 mps 760 mmHg 57%
21:00 +9°C° 0 mm 8 mps 760 mmHg 63%
22:00 +9°C° 0 mm 8 mps 760 mmHg 64%
23:00 +8°C° 0 mm 7 mps 760 mmHg 66%

19 August, Wednesday

Time Temperature Precipitation Wind Pressure Humidity
00:00 +6°C° 0 mm 7 mps 760 mmHg 68%
01:00 +6°C° 0 mm 7 mps 761 mmHg 69%
02:00 +5°C° 0 mm 7 mps 761 mmHg 69%
03:00 +4°C° 0 mm 7 mps 761 mmHg 70%
04:00 +4°C° 0 mm 7 mps 761 mmHg 68%
05:00 +5°C° 0 mm 8 mps 762 mmHg 66%
06:00 +5°C° 0 mm 8 mps 762 mmHg 65%
07:00 +6°C° 0 mm 7 mps 762 mmHg 62%
08:00 +8°C° 0 mm 7 mps 762 mmHg 60%
09:00 +9°C° 0 mm 7 mps 762 mmHg 58%
10:00 +9°C° 0 mm 7 mps 763 mmHg 57%
11:00 +10°C° 0 mm 7 mps 763 mmHg 56%
12:00 +10°C° 0 mm 7 mps 763 mmHg 56%
13:00 +10°C° 0 mm 7 mps 763 mmHg 56%
14:00 +10°C° 0 mm 8 mps 763 mmHg 56%
15:00 +10°C° 0 mm 8 mps 763 mmHg 57%
16:00 +9°C° 0 mm 8 mps 764 mmHg 58%
17:00 +7°C° 0 mm 8 mps 764 mmHg 59%
18:00 +6°C° 0 mm 8 mps 764 mmHg 60%
19:00 +5°C° 0 mm 8 mps 764 mmHg 64%
20:00 +4°C° 0 mm 8 mps 765 mmHg 68%
21:00 +2°C° 0 mm 8 mps 765 mmHg 72%
22:00 +2°C° 0 mm 7 mps 765 mmHg 76%
23:00 +2°C° 0 mm 7 mps 765 mmHg 79%
Show more